EW9523 Weather Reports


Display with metric or nautical units.
time (UTC)temp
F
wind
direction
speed
MPH
gust
MPH
rain 1hr
in
rain 24hr
in
rain mn
in
humidity
%
barometer
mb
20260504001859 62 215 5.0 11.0 0.00 0.00 0.00 70 1011.3
20260504000859 63 254 4.0 9.0 0.00 0.00 0.00 69 1011.2
20260503235859 64 260 4.0 12.0 0.00 0.00 0.00 68 1011.1
20260503234859 64 99 4.0 13.0 0.00 0.00 0.00 66 1010.8
20260503233900 65 131 3.0 11.0 0.00 0.00 0.00 66 1010.7
20260503233809 65 140 4.0 12.0 0.00 0.00 0.00 67 1010.7
20260503231853 65 103 4.0 13.0 0.00 0.00 0.00 66 1010.6
20260503230853 66 142 3.0 12.0 0.00 0.00 0.00 63 1010.6
20260503225853 66 180 1.0 5.0 0.00 0.00 0.00 66 1010.6
20260503224853 65 184 3.0 9.0 0.00 0.00 0.00 66 1010.7
20260503223852 65 44 2.0 9.0 0.00 0.00 0.00 66 1010.7
20260503222853 65 115 2.0 9.0 0.00 0.00 0.00 69 1010.9
20260503222243 63 106 3.0 8.0 0.00 0.00 0.00 69 1011.0
20260503221911 64 121 3.0 6.0 0.00 0.00 0.00 71 1010.9
20260503215837 63 142 2.0 6.0 0.00 0.00 0.00 70 1011.0
20260503214836 63 98 2.0 6.0 0.00 0.00 0.00 71 1011.1
20260503213837 62 277 2.0 6.0 0.00 0.00 0.00 73 1011.1
20260503212834 62 100 2.0 8.0 0.00 0.00 0.00 73 1011.1
20260503211834 61 146 2.0 7.0 0.00 0.00 0.00 74 1011.2
20260503211311 60 67 4.0 9.0 0.00 0.00 0.00 74 1011.1
20260503205834 60 105 3.0 6.0 0.00 0.00 0.00 74 1011.2
20260503204823 60 100 3.0 6.0 0.00 0.00 0.00 74 1011.3
20260503203823 60 109 3.0 7.0 0.00 0.00 0.00 76 1011.4
20260503202821 59 140 3.0 9.0 0.00 0.00 0.00 77 1011.5
20260503201819 59 93 3.0 8.0 0.00 0.00 0.00 77 1011.6
20260503200819 58 88 3.0 7.0 0.00 0.00 0.00 78 1011.7
20260503195806 58 117 4.0 11.0 0.00 0.00 0.00 78 1011.7
20260503194804 58 92 3.0 7.0 0.00 0.00 0.00 79 1011.7
20260503193805 58 91 3.0 10.0 0.00 0.00 0.00 81 1011.8
20260503192803 58 129 3.0 7.0 0.00 0.00 0.00 80 1011.7
20260503191803 57 81 4.0 7.0 0.00 0.00 0.00 81 1011.8
20260503190752 57 129 2.0 6.0 0.00 0.00 0.00 81 1011.8
20260503185750 57 107 2.0 7.0 0.00 0.00 0.00 83 1011.7
20260503184749 56 61 3.0 6.0 0.00 0.00 0.00 84 1011.7
20260503183746 56 71 3.0 7.0 0.00 0.00 0.00 83 1011.7
20260503182747 56 123 3.0 7.0 0.00 0.00 0.00 83 1011.7
20260503181745 57 148 2.0 5.0 0.00 0.00 0.00 83 1011.7
20260503180743 56 96 2.0 7.0 0.00 0.00 0.00 83 1011.6
20260503175742 56 110 2.0 6.0 0.00 0.00 0.00 85 1011.6
20260503174743 56 124 3.0 6.0 0.00 0.00 0.00 85 1011.6
20260503173742 56 136 3.0 7.0 0.00 0.00 0.00 85 1011.6
20260503172734 56 96 1.0 6.0 0.00 0.00 0.00 86 1011.5
20260503171734 55 195 2.0 9.0 0.00 0.00 0.00 88 1011.5
20260503170735 55 155 2.0 7.0 0.00 0.00 0.00 88 1011.5
20260503160159 54 115 2.0 5.0 0.00 0.00 0.00 92 1011.0
20260503150711 53 157 1.0 4.0 0.00 0.00 0.00 92 1010.7
20260503130624 53 136 1.0 4.0 0.00 0.00 0.00 93 1009.4
20260503110532 53 137 1.0 3.0 0.00 0.00 0.00 92 1009.2
20260503090508 54 132 1.0 4.0 0.00 0.00 0.00 88 1009.7
20260503081452 54 122 0.0 2.0 0.00 0.00 0.00 87 1009.9
20260503080441 54 135 0.0 1.0 0.00 0.00 0.00 87 1010.0
20260503072920 55 240 1.0 4.0 0.00 0.00 0.00 86 1010.1
20260503071436 55 159 0.0 2.0 0.00 0.00 0.00 86 1010.2
20260503070422 55 121 1.0 4.0 0.00 0.00 0.00 85 1010.3
20260503054350 55 168 1.0 4.0 0.00 0.00 0.00 85 1010.5
20260503053352 55 138 1.0 3.0 0.00 0.00 0.00 85 1010.5
20260503052350 55 129 2.0 6.0 0.00 0.00 0.00 84 1010.5
20260503051831 55 151 1.0 4.0 0.00 0.00 0.00 84 1010.5
20260503050749 56 202 2.0 5.0 0.00 0.00 0.00 85 1010.4
20260503050419 56 136 1.0 5.0 0.00 0.00 0.00 85 1010.6
20260503044341 56 219 1.0 4.0 0.00 0.00 0.00 84 1010.4
20260503043338 56 123 2.0 7.0 0.00 0.00 0.00 84 1010.2
20260503042334 56 115 1.0 5.0 0.00 0.00 0.00 84 1010.2
20260503041818 56 108 1.0 5.0 0.00 0.00 0.00 84 1010.1
20260503040326 56 132 1.0 5.0 0.00 0.00 0.00 84 1010.1
20260503035757 56 134 2.0 7.0 0.00 0.00 0.00 84 1010.0
20260503034319 56 69 3.0 7.0 0.00 0.00 0.00 84 1009.9
20260503033319 56 88 1.0 5.0 0.00 0.00 0.00 84 1009.8
20260503032320 57 136 1.0 5.0 0.00 0.00 0.00 83 1009.6
20260503031311 57 117 2.0 6.0 0.00 0.00 0.00 82 1009.5
20260503030309 58 109 2.0 7.0 0.00 0.00 0.00 82 1009.5
20260503025306 58 154 2.0 6.0 0.00 0.00 0.00 81 1009.5
20260503024739 58 130 2.0 9.0 0.00 0.00 0.00 81 1009.4
20260503023302 59 127 2.0 7.0 0.00 0.00 0.00 80 1009.4
20260503022254 60 136 2.0 7.0 0.00 0.00 0.00 80 1009.4
20260503021253 60 175 2.0 7.0 0.00 0.00 0.00 79 1009.4
20260503020250 61 101 2.0 10.0 0.00 0.00 0.00 78 1009.3
20260503015251 61 131 2.0 6.0 0.00 0.00 0.00 78 1009.3
20260503014721 62 132 3.0 10.0 0.00 0.00 0.00 78 1009.3
20260503013247 62 157 2.0 7.0 0.00 0.00 0.00 77 1009.3
20260503012247 63 121 3.0 10.0 0.00 0.00 0.00 76 1009.5
20260503011243 63 119 4.0 13.0 0.00 0.00 0.00 75 1009.3
20260503010242 64 153 4.0 12.0 0.00 0.00 0.00 75 1009.4
20260503005242 64 119 4.0 12.0 0.00 0.00 0.00 76 1009.5
20260503004240 64 134 3.0 11.0 0.00 0.00 0.00 75 1009.4
20260503003238 64 150 4.0 13.0 0.00 0.00 0.00 76 1009.4